DESTH EDFM-EDGS

Flight info

Callsign DESTH
Flight time N/A
Altitude 5000
Route FKS/N0157F060 DCT TAU
Aircraft PA24/L-SDGRY/S

Departure

Time 2026-04-19 09:13
Airport Mannheim-City Airport (EDFM)

Arrival

Time N/A
Airport Siegerland Airport (EDGS)
Time Latitude Longitude Altitude Speed Heading
2026-04-19 08:55 49.47561 8.52057 307 ft 0 kts 182°
2026-04-19 09:08 49.47541 8.52063 316 ft 5 kts 114°
2026-04-19 09:08 49.47538 8.52151 316 ft 8 kts 90°
2026-04-19 09:08 49.47484 8.52169 316 ft 14 kts 184°
2026-04-19 09:08 49.47391 8.52160 316 ft 8 kts 185°
2026-04-19 09:09 49.47350 8.52156 317 ft 0 kts 182°
2026-04-19 09:09 49.47349 8.52156 317 ft 0 kts 182°
2026-04-19 09:12 49.47281 8.52151 317 ft 16 kts 184°
2026-04-19 09:12 49.47249 8.52022 317 ft 34 kts 273°
2026-04-19 09:13 49.47267 8.51338 380 ft 76 kts 276°
2026-04-19 09:13 49.47304 8.50481 621 ft 82 kts 277°
2026-04-19 09:13 49.47346 8.49572 924 ft 91 kts 277°
2026-04-19 09:13 49.47352 8.48604 1279 ft 86 kts 278°
2026-04-19 09:14 49.47421 8.47637 1584 ft 95 kts 285°
2026-04-19 09:14 49.47528 8.46678 1969 ft 91 kts 300°
2026-04-19 09:14 49.48085 8.46063 2191 ft 97 kts 336°
2026-04-19 09:14 49.48695 8.45651 2453 ft 100 kts 335°
2026-04-19 09:15 49.49318 8.45201 2658 ft 99 kts 335°
2026-04-19 09:15 49.49944 8.44713 2824 ft 102 kts 334°
2026-04-19 09:15 49.51181 8.43543 3083 ft 109 kts 336°
2026-04-19 09:16 49.51909 8.43203 3192 ft 111 kts 347°
2026-04-19 09:16 49.52704 8.42918 3193 ft 120 kts 348°
2026-04-19 09:16 49.53521 8.42733 3259 ft 120 kts 355°
2026-04-19 09:16 49.54326 8.42388 3257 ft 126 kts 326°
2026-04-19 09:17 49.54855 8.41317 3321 ft 125 kts 297°
2026-04-19 09:17 49.54997 8.40004 3405 ft 130 kts 276°
2026-04-19 09:17 49.54960 8.38582 3430 ft 134 kts 274°
2026-04-19 09:17 49.54915 8.37112 3399 ft 140 kts 274°
2026-04-19 09:18 49.54808 8.35629 3454 ft 139 kts 272°
2026-04-19 09:18 49.54860 8.34152 3474 ft 137 kts 281°
2026-04-19 09:18 49.54925 8.32710 3538 ft 134 kts 280°
2026-04-19 09:18 49.54930 8.31254 3538 ft 138 kts 275°
2026-04-19 09:19 49.54927 8.29781 3585 ft 137 kts 277°
2026-04-19 09:19 49.54961 8.28324 3629 ft 135 kts 281°
2026-04-19 09:19 49.55078 8.26921 3715 ft 130 kts 290°
2026-04-19 09:19 49.55447 8.25804 4127 ft 108 kts 318°
2026-04-19 09:20 49.56141 8.25497 4258 ft 117 kts 18°
2026-04-19 09:20 49.56492 8.26701 4084 ft 155 kts 103°
2026-04-19 09:20 49.55676 8.27314 4561 ft 135 kts 201°
2026-04-19 09:20 49.55404 8.26290 4910 ft 102 kts 323°
2026-04-19 09:21 49.55952 8.26667 5187 ft 110 kts 70°
2026-04-19 09:21 49.55527 8.27446 5392 ft 117 kts 198°
2026-04-19 09:21 49.55394 8.26581 5545 ft 109 kts 334°
2026-04-19 09:21 49.55776 8.27378 5671 ft 130 kts 109°
2026-04-19 09:22 49.55127 8.27574 6120 ft 102 kts 233°
2026-04-19 09:22 49.55169 8.26784 6519 ft 74 kts 326°
2026-04-19 09:22 49.55636 8.27036 6742 ft 89 kts 56°
2026-04-19 09:22 49.55370 8.27895 6885 ft 101 kts 168°
2026-04-19 09:23 49.54856 8.27519 7162 ft 79 kts 261°
2026-04-19 09:23 49.55039 8.26893 7418 ft 72 kts 329°
2026-04-19 09:23 49.55615 8.27260 7257 ft 124 kts 58°
2026-04-19 09:23 49.55382 8.28536 7378 ft 132 kts 140°
2026-04-19 09:24 49.54641 8.29050 7791 ft 107 kts 191°
2026-04-19 09:24 49.54001 8.28603 7931 ft 100 kts 236°
2026-04-19 09:24 49.53547 8.27987 8256 ft 81 kts 248°
2026-04-19 09:24 49.53377 8.27174 8408 ft 78 kts 268°
2026-04-19 09:25 49.53358 8.26388 8583 ft 78 kts 273°
2026-04-19 09:25 49.53502 8.25467 8662 ft 83 kts 298°